Location: Moscow
(55.7500°N, 37.5830°E)
Time: 07:34:36
(UTC+03:00)

A-11 Canister half - Pass Details

Date: 02 December 2021
Orbit: 1524 x 1684 km, 47.3° (Epoch: 17 January)

Event Time Altitude Azimuth Distance (km) Brightness Sun altitude
Exits shadow 05:04:35 39° 225° (SW) 2,327 9.5 -28.4°
Maximum altitude 05:08:01 53° 176° (S) 1,966 9.4 -27.9°
Drops below altitude 10° 05:17:26 10° 103° (ESE) 3,844 12.0 -26.6°
Sets 05:20:36 0° 99° (E) 4,808 12.9 -26.2°
